Location: Roland
(31.1349°N, 85.4372°W)
Time: 03:53:37
(UTC+00:00)

Courier 1B - Pass Details

Date: 26 April 2021
Orbit: 962 x 1209 km, 28.3° (Epoch: 07 May)

Event Time Altitude Azimuth Distance (km) Brightness Sun altitude
Rises 17:15:06 0° 262° (W) 3,870 10.6 71.7°
Reaches altitude 10° 17:17:56 10° 260° (W) 2,876 10.1 71.9°
Maximum altitude 17:24:52 71° 178° (S) 1,068 11.4 72.3°
Drops below altitude 10° 17:31:26 10° 96° (E) 2,725 10.0 72.5°
Sets 17:34:03 0° 94° (E) 3,655 10.5 72.6°
